Weather History for KLCH - May, 2014

Change the Weather History Date:

Sunday, May 11, 2014

  Actual Average Record
Temperature  
Mean Temperature 81 °F 74 °F  
Max Temperature 88 °F 84 °F 91 °F (1916)
Min Temperature 74 °F 65 °F 50 °F (1981)
Degree Days  
Heating Degree Days 0 0  
Month to date heating degree days 0 0  
Since 1 July heating degree days 1950 1489  
Cooling Degree Days 16 10  
Month to date cooling degree days 83 92  
Year to date cooling degree days 252 300  
Growing Degree Days 30 (Base 50)    
Moisture  
Dew Point 73 °F    
Average Humidity 79    
Maximum Humidity 94    
Minimum Humidity 63    
Precipitation  
Precipitation 0.00 in 0.16 in 4.14 in (1971)
Month to date precipitation 0.05 1.64  
Year to date precipitation 9.76 17.32  
Snow  
Snow 0.00 in 0.00 in 0.00 in ()
Month to date snowfall 0.0 0.0  
Since 1 July snowfall 0.1 0.1  
Snow Depth 0.00 in    
Sea Level Pressure  
Sea Level Pressure 29.92 in    
Wind  
Wind Speed 13 mph (SSE)    
Max Wind Speed 23 mph    
Max Gust Speed 30 mph    
Visibility 10 miles    
Events      
T = Trace of Precipitation, MM = Missing Value Source: NWS Daily Summary

Daily Weather History Graph

Daily Weather History Graph

Search for Another Location

Airport or City:

Trip Planner

Search our weather history database for the weather conditions in past years. The results will help you decide how hot, cold, wet, or windy it might be!

Date:

Astronomy

May. 11, 2014 Rise Set
Actual Time 6:21 AM CDT 7:57 PM CDT
Civil Twilight 5:55 AM CDT 8:23 PM CDT
Nautical Twilight 5:24 AM CDT 8:54 PM CDT
Astronomical Twilight 4:52 AM CDT 9:26 PM CDT
Moon 5:06 PM CDT (5/11) 4:12 AM CDT (5/11)
Length of Visible Light 14h 27m
Length of Day
13h 35m
Waxing Gibbous, 89% of the Moon is Illuminated
May 11
Waxing Gibbous
May 14
Full
May 21
Last Quarter
May 28
New
Jun 5
First Quarter

Hourly Weather History & Observations

Time (CDT) Temp. Heat Index Dew Point Humidity Pressure Visibility Wind Dir Wind Speed Gust Speed Precip Events Conditions
12:53 AM 75.9 °F - 73.0 °F 91% 29.95 in 9.0 mi SSE 11.5 mph - N/A   Overcast
1:53 AM 75.9 °F - 72.0 °F 87% 29.94 in 10.0 mi SSE 9.2 mph - N/A   Overcast
2:53 AM 75.9 °F - 72.0 °F 87% 29.94 in 10.0 mi SSE 9.2 mph - N/A   Overcast
3:04 AM 75.9 °F - 71.1 °F 85% 29.91 in 10.0 mi SSE 10.4 mph - N/A   Overcast
3:53 AM 75.0 °F - 70.0 °F 84% 29.93 in 10.0 mi SSE 5.8 mph - N/A   Overcast
4:53 AM 73.9 °F - 70.0 °F 87% 29.93 in 10.0 mi ESE 4.6 mph - N/A   Overcast
5:20 AM 73.9 °F - 70.0 °F 87% 29.91 in 10.0 mi SE 3.5 mph - N/A   Overcast
5:53 AM 73.9 °F - 70.0 °F 87% 29.94 in 10.0 mi SE 3.5 mph - N/A   Overcast
6:53 AM 73.9 °F - 71.1 °F 91% 29.95 in 10.0 mi East 4.6 mph - N/A   Overcast
7:25 AM 75.0 °F - 71.1 °F 87% 29.94 in 10.0 mi ESE 4.6 mph - N/A   Overcast
7:46 AM 75.0 °F - 72.0 °F 90% 29.94 in 9.0 mi ESE 5.8 mph - N/A   Overcast
7:53 AM 75.0 °F - 72.0 °F 90% 29.97 in 9.0 mi ESE 5.8 mph - N/A   Overcast
8:26 AM 77.0 °F - 73.0 °F 88% 29.95 in 10.0 mi SSE 8.1 mph - N/A   Overcast
8:41 AM 77.0 °F - 73.0 °F 88% 29.95 in 10.0 mi SSE 9.2 mph - N/A   Overcast
8:53 AM 77.0 °F - 73.0 °F 88% 29.97 in 10.0 mi South 6.9 mph - N/A   Overcast
9:40 AM 80.1 °F 84.2 °F 73.0 °F 79% 29.95 in 10.0 mi SSE 8.1 mph - N/A   Overcast
9:53 AM 80.1 °F 83.8 °F 72.0 °F 76% 29.98 in 10.0 mi SSE 11.5 mph 20.7 mph N/A   Overcast
10:48 AM 84.2 °F 90.9 °F 73.4 °F 70% 29.95 in 10.0 mi South 13.8 mph 25.3 mph N/A   Scattered Clouds
10:53 AM 84.9 °F 91.4 °F 73.0 °F 67% 29.97 in 10.0 mi SSE 20.7 mph 25.3 mph N/A   Scattered Clouds
11:53 AM 86.0 °F 93.0 °F 73.0 °F 65% 29.96 in 10.0 mi SSE 19.6 mph 26.5 mph N/A   Partly Cloudy
12:53 PM 87.1 °F 94.5 °F 73.0 °F 63% 29.94 in 10.0 mi SSE 17.3 mph 26.5 mph N/A   Scattered Clouds
1:53 PM 86.0 °F 93.0 °F 73.0 °F 65% 29.93 in 10.0 mi South 13.8 mph 23.0 mph N/A   Mostly Cloudy
2:53 PM 84.0 °F 90.2 °F 73.0 °F 69% 29.91 in 10.0 mi SSE 19.6 mph 25.3 mph N/A   Scattered Clouds
3:53 PM 84.0 °F 90.2 °F 73.0 °F 69% 29.89 in 10.0 mi South 18.4 mph 28.8 mph N/A   Mostly Cloudy
4:10 PM 84.9 °F 92.1 °F 73.9 °F 69% 29.86 in 10.0 mi SSE 16.1 mph 28.8 mph N/A   Mostly Cloudy
4:53 PM 82.9 °F 89.4 °F 73.9 °F 74% 29.88 in 10.0 mi SSE 20.7 mph 28.8 mph N/A   Overcast
5:16 PM 82.0 °F 87.9 °F 73.9 °F 76% 29.86 in 10.0 mi South 11.5 mph 26.5 mph N/A   Overcast
5:25 PM 81.0 °F 85.8 °F 73.0 °F 77% 29.86 in 10.0 mi SSE 17.3 mph 29.9 mph N/A   Overcast
5:53 PM 80.1 °F 84.2 °F 73.0 °F 79% 29.89 in 10.0 mi SSE 17.3 mph 26.5 mph N/A   Overcast
6:00 PM 80.1 °F 84.2 °F 73.0 °F 79% 29.87 in 10.0 mi SSE 18.4 mph 27.6 mph N/A   Overcast
6:30 PM 80.1 °F 84.5 °F 73.9 °F 81% 29.87 in 10.0 mi SSE 16.1 mph 27.6 mph N/A   Overcast
6:39 PM 80.1 °F 84.5 °F 73.9 °F 81% 29.87 in 10.0 mi SSE 18.4 mph 25.3 mph N/A   Overcast
6:53 PM 80.1 °F 84.2 °F 73.0 °F 79% 29.89 in 10.0 mi SSE 18.4 mph 27.6 mph N/A   Overcast
7:11 PM 79.0 °F - 73.0 °F 82% 29.87 in 10.0 mi SSE 18.4 mph 25.3 mph N/A   Overcast
7:40 PM 79.0 °F - 73.0 °F 82% 29.87 in 10.0 mi SSE 19.6 mph 26.5 mph N/A   Overcast
7:53 PM 79.0 °F - 73.0 °F 82% 29.90 in 10.0 mi SSE 17.3 mph - N/A   Mostly Cloudy
8:05 PM 79.0 °F - 73.9 °F 84% 29.87 in 10.0 mi SSE 18.4 mph 26.5 mph N/A   Mostly Cloudy
8:21 PM 78.1 °F - 73.9 °F 87% 29.87 in 10.0 mi SSE 17.3 mph 24.2 mph N/A   Overcast
8:53 PM 78.1 °F - 73.9 °F 87% 29.91 in 10.0 mi SSE 15.0 mph 24.2 mph N/A   Overcast
9:29 PM 78.1 °F - 73.9 °F 87% 29.90 in 10.0 mi SSE 16.1 mph - N/A   Overcast
9:51 PM 78.8 °F - 73.4 °F 83% 29.91 in 10.0 mi SSE 16.1 mph 27.6 mph N/A   Overcast
9:53 PM 78.1 °F - 73.9 °F 87% 29.93 in 10.0 mi SSE 15.0 mph 27.6 mph N/A   Overcast
10:02 PM 78.1 °F - 73.9 °F 87% 29.91 in 10.0 mi SSE 12.7 mph 20.7 mph N/A   Overcast
10:53 PM 78.1 °F - 73.9 °F 87% 29.96 in 10.0 mi South 13.8 mph 21.9 mph N/A   Overcast
11:15 PM 78.1 °F - 73.0 °F 84% 29.93 in 10.0 mi SSE 16.1 mph 21.9 mph N/A   Mostly Cloudy
11:34 PM 78.1 °F - 73.9 °F 87% 29.93 in 10.0 mi SSE 13.8 mph - N/A   Mostly Cloudy
11:46 PM 78.1 °F - 73.9 °F 87% 29.93 in 10.0 mi SSE 15.0 mph - N/A   Mostly Cloudy
11:53 PM 78.1 °F - 73.9 °F 87% 29.95 in 10.0 mi SSE 15.0 mph 23.0 mph N/A   Mostly Cloudy